Terug naar catalogus

STARLINK-31028

ActiefCommunicatieVLEO
NORAD 58516·PAYLOAD·🇺🇸 United States

Gelanceerd Dec 7, 2023 vanaf Cape Canaveral Space Force Station

Loading…

Volgende Passages (komende 24 uur)

TLE

VersSource: CelesTrak SupGP

Epoch: Sep 15, 2026, 03:17 UTC

1 58516C 23191J   26258.13729167  .00035193  00000+0  12744-2 0  2588
2 58516  42.9995 113.1949 0001406 271.1835 276.5180 15.27568651    17

Volg STARLINK-31028 in realtime met AllMySat

Download on the App Store